Amarillo, TX

5:11 PM CST on December 14, 2017 (GMT -0600)
Amarillo International

Weather History for KAMA - July, 2013

Change the Weather History Date:

Monday, July 15, 2013

  Actual Average Record
Temperature  
Mean Temperature 66 °F 78 °F  
Max Temperature 75 °F 92 °F 102 °F (1978)
Min Temperature 56 °F 65 °F 55 °F (1973)
Degree Days  
Heating Degree Days 0 0  
Month to date heating degree days 0 0  
Since 1 June heating degree days 0 7  
Since 1 July heating degree days 0 0  
Cooling Degree Days 1 14  
Month to date cooling degree days 210 199  
Year to date cooling degree days 849 612  
Since 1 June cooling degree days 601 487  
Growing Degree Days 15 (Base 50)    
Moisture  
Dew Point 56 °F    
Average Humidity 73    
Maximum Humidity 93    
Minimum Humidity 53    
Precipitation  
Precipitation 0.02 in 0.09 in 1.53 in (2016)
Month to date precipitation 0.24 1.28  
Year to date precipitation 9.33 10.80  
Snow  
Snow 0.00 in 0.00 in T in (2016)
Month to date snowfall 0.0 0.0  
Since 1 June snowfall 0.0 0.0  
Since 1 July snowfall 0.0 0.0  
Snow Depth 0.00 in    
Sea Level Pressure  
Sea Level Pressure 30.10 in    
Wind  
Wind Speed 9 mph (NE)    
Max Wind Speed 20 mph    
Max Gust Speed 23 mph    
Visibility 9 miles    
Events Rain    
T = Trace of Precipitation, MM = Missing Value Source: NWS Daily Summary

Daily Weather History Graph

Daily Weather History Graph

Search for Another Location

Airport or City:

Trip Planner

Search our weather history database for the weather conditions in past years. The results will help you decide how hot, cold, wet, or windy it might be!

Date:

Astronomy

Jul. 15, 2013 Rise Set
Actual Time 6:43 AM CDT 9:01 PM CDT
Civil Twilight 6:14 AM CDT 9:30 PM CDT
Nautical Twilight 5:39 AM CDT 10:06 PM CDT
Astronomical Twilight 5:00 AM CDT 10:44 PM CDT
Moon 1:46 PM CDT (7/15) 12:32 AM CDT (7/15)
Length of Visible Light 15h 15m
Length of Day
14h 17m
Waxing Crescent, 45% of the Moon is Illuminated
Jul 15
Waxing Crescent
Jul 15
First Quarter
Jul 22
Full
Jul 29
Last Quarter
Aug 6
New

Hourly Weather History & Observations

Time (CDT) Temp. Dew Point Humidity Pressure Visibility Wind Dir Wind Speed Gust Speed Precip Events Conditions
12:53 AM 59.0 °F 57.0 °F 93% 30.04 in 10.0 mi SE 9.2 mph - 0.00 in   Overcast
1:53 AM 59.0 °F 57.0 °F 93% 30.03 in 10.0 mi ESE 4.6 mph - N/A   Overcast
2:53 AM 59.0 °F 57.0 °F 93% 30.02 in 10.0 mi East 6.9 mph - N/A   Overcast
3:06 AM 59.0 °F 57.2 °F 94% 30.15 in 10.0 mi East 8.1 mph - N/A   Overcast
3:43 AM 57.2 °F 55.4 °F 94% 30.15 in 10.0 mi NE 5.8 mph - N/A   Partly Cloudy
3:53 AM 57.0 °F 55.9 °F 96% 30.04 in 10.0 mi NNE 4.6 mph - N/A   Partly Cloudy
4:53 AM 57.0 °F 55.0 °F 93% 30.05 in 5.0 mi NNE 6.9 mph - N/A   Partly Cloudy
5:11 AM 57.2 °F 55.4 °F 94% 30.16 in 5.0 mi NNE 6.9 mph - N/A   Mostly Cloudy
5:41 AM 57.2 °F 55.4 °F 94% 30.16 in 6.0 mi NNE 9.2 mph - N/A   Scattered Clouds
5:53 AM 57.9 °F 55.9 °F 93% 30.05 in 6.0 mi NNE 8.1 mph - N/A   Clear
6:10 AM 57.2 °F 55.4 °F 94% 30.16 in 6.0 mi NNE 9.2 mph - N/A   Scattered Clouds
6:18 AM 59.0 °F 57.2 °F 94% 30.17 in 6.0 mi NNE 10.4 mph - N/A   Mostly Cloudy
6:50 AM 59.0 °F 57.2 °F 94% 30.17 in 6.0 mi North 8.1 mph - N/A   Overcast
6:53 AM 59.0 °F 57.0 °F 93% 30.06 in 6.0 mi North 9.2 mph - N/A   Overcast
7:17 AM 60.8 °F 57.2 °F 88% 30.17 in 8.0 mi NNE 11.5 mph - N/A   Overcast
7:39 AM 60.8 °F 57.2 °F 88% 30.17 in 9.0 mi NNE 12.7 mph - N/A   Overcast
7:53 AM 60.1 °F 57.0 °F 90% 30.09 in 9.0 mi NE 11.5 mph - N/A   Overcast
8:10 AM 60.8 °F 57.2 °F 88% 30.19 in 9.0 mi NE 11.5 mph - N/A   Overcast
8:45 AM 60.8 °F 57.2 °F 88% 30.20 in 10.0 mi NE 15.0 mph - N/A   Overcast
8:48 AM 60.8 °F 57.2 °F 88% 30.20 in 10.0 mi NE 13.8 mph - N/A   Overcast
8:53 AM 61.0 °F 57.0 °F 87% 30.11 in 10.0 mi NE 15.0 mph - N/A   Overcast
9:32 AM 62.6 °F 57.2 °F 82% 30.21 in 10.0 mi NE 12.7 mph - N/A   Scattered Clouds
9:43 AM 64.4 °F 57.2 °F 77% 30.21 in 10.0 mi NE 11.5 mph - N/A   Mostly Cloudy
9:53 AM 64.0 °F 57.0 °F 78% 30.11 in 10.0 mi NE 11.5 mph - N/A   Overcast
10:36 AM 66.2 °F 55.4 °F 68% 30.21 in 10.0 mi NNE 12.7 mph - N/A   Overcast
10:53 AM 66.0 °F 57.0 °F 73% 30.10 in 10.0 mi NNE 8.1 mph - N/A   Overcast
11:53 AM 66.9 °F 55.9 °F 68% 30.10 in 10.0 mi North 15.0 mph - N/A   Mostly Cloudy
12:53 PM 66.9 °F 57.0 °F 70% 30.09 in 10.0 mi NE 9.2 mph - 0.00 in Rain Light Rain
1:53 PM 68.0 °F 59.0 °F 73% 30.07 in 10.0 mi East 11.5 mph - 0.01 in   Mostly Cloudy
2:53 PM 73.0 °F 55.0 °F 53% 30.05 in 10.0 mi NE 11.5 mph 19.6 mph N/A   Mostly Cloudy
3:53 PM 72.0 °F 54.0 °F 53% 30.04 in 10.0 mi East 9.2 mph - N/A   Overcast
4:53 PM 71.1 °F 55.9 °F 59% 30.03 in 10.0 mi East 15.0 mph - 0.00 in Rain Light Rain
5:53 PM 72.0 °F 53.1 °F 51% 30.01 in 10.0 mi East 6.9 mph - 0.00 in   Overcast
6:53 PM 72.0 °F 54.0 °F 53% 29.99 in 10.0 mi ESE 8.1 mph - N/A   Mostly Cloudy
7:53 PM 66.0 °F 57.9 °F 75% 30.03 in 10.0 mi ESE 12.7 mph - 0.01 in   Mostly Cloudy
8:53 PM 64.9 °F 57.9 °F 78% 30.05 in 10.0 mi ESE 8.1 mph - N/A   Overcast
9:53 PM 64.0 °F 57.0 °F 78% 30.05 in 10.0 mi ESE 8.1 mph - N/A   Overcast
10:53 PM 63.0 °F 57.9 °F 84% 30.08 in 10.0 mi ESE 6.9 mph - N/A   Mostly Cloudy
11:53 PM 63.0 °F 59.0 °F 87% 30.09 in 10.0 mi East 9.2 mph - N/A   Mostly Cloudy